Location: Hilton Head Island
(32.2163°N, 80.7526°W)
Time: 16:20:03
(UTC-05:00)

Explorer 11/Cluster Stage 4 - Pass Details

Date: 20 February 2026
Orbit: 463 x 1176 km, 28.8° (Epoch: 6 March)

Event Time Altitude Azimuth Distance (km) Brightness Sun altitude
Rises 12:17:06 0° 244° (WSW) 3,164 9.9 46.8°
Reaches altitude 10° 12:19:53 10° 237° (WSW) 2,113 9.2 46.9°
Maximum altitude 12:24:24 38° 169° (S) 899 9.4 47.0°
Drops below altitude 10° 12:28:12 10° 100° (E) 1,777 8.7 47.0°
Sets 12:30:22 0° 92° (E) 2,596 9.3 47.0°
